Location: Casa Rossa
(45.2389°N, 12.2056°E)
Time: 03:33:17
(UTC+00:00)

ARIANE 5 R/B - Pass Details

Date: 14 July 2020
Orbit: 749 x 794 km, 98.6° (Epoch: 11 August)

Event Time Altitude Azimuth Distance (km) Brightness Sun altitude
Rises 02:50:51 0° 7° (N) 3,235 6.6 -7.4°
Reaches altitude 10° 02:53:15 10° 359° (N) 2,311 5.6 -7.1°
Maximum altitude 02:57:57 39° 293° (WNW) 1,151 3.2 -6.4°
Drops below altitude 10° 03:02:40 10° 225° (SW) 2,324 4.3 -5.8°
Enters shadow 03:03:30 - 222° (SW) 2,634 4.6 -5.7°
